Hourly Data Report for October 14, 2015

All times are specified in Local Standard Time (LST). Add 1 hour to adjust for Daylight Saving Time where and when it is observed.

TORONTO INTL A
ONTARIO

43°40'36.000" N
79°37'50.000" W
173.40 m
6158731
71624
YYZ

Download Data

Hourly Data (October 2015)
Hourly Data Report for October 14, 2015
Temp Definition
°C
Dew Point Temp Definition
°C
Rel Hum Definition
%
Wind Dir Definition
10's deg

Wind Spd Definition
km/h
Visibility Definition
km
Stn Press Definition
kPa
Hmdx Definition


Wind Chill Definition


Weather Definition


TIME
00:00 Legend Double Dagger 11.6 7.7 77 29 30 24.1 98.24     Rain Showers
01:00 Legend Double Dagger 10.5 6.7 77 28 28 24.1 98.25     Mostly Cloudy
02:00 Legend Double Dagger 10.4 6.8 78 29 28 24.1 98.31     LegendNANA
03:00 Legend Double Dagger 10.7 6.5 75 31 30 24.1 98.33     LegendNANA
04:00 Legend Double Dagger 9.9 5.3 73 31 23 24.1 98.40     Mostly Cloudy
05:00 Legend Double Dagger 9.3 5.1 75 31 19 24.1 98.49     LegendNANA
06:00 Legend Double Dagger 9.1 4.5 73 30 19 24.1 98.59     LegendNANA
07:00 Legend Double Dagger 8.1 4.5 78 28 14 24.1 98.69     Mostly Cloudy
08:00 Legend Double Dagger 9.2 4.8 74 28 16 24.1 98.75     LegendNANA
09:00 Legend Double Dagger 10.1 4.1 66 30 22 24.1 98.83     LegendNANA
10:00 Legend Double Dagger 9.3 4.3 71 35 20 24.1 98.90     Mostly Cloudy
11:00 Legend Double Dagger 10.4 2.5 58 30 22 24.1 98.94     LegendNANA
12:00 Legend Double Dagger 12.1 1.8 49 28 25 24.1 98.96     LegendNANA
13:00 Legend Double Dagger 11.8 1.2 48 28 17 24.1 98.94     Mostly Cloudy
14:00 Legend Double Dagger 11.7 3.0 55 26 19 24.1 98.95     LegendNANA
15:00 Legend Double Dagger 12.2 1.9 49 29 27 24.1 98.98     LegendNANA
16:00 Legend Double Dagger 12.2 1.9 49 28 21 24.1 99.01     Mostly Cloudy
17:00 Legend Double Dagger 11.5 1.5 50 30 27 24.1 99.06     LegendNANA
18:00 Legend Double Dagger 10.9 1.2 51 31 26 24.1 99.12     LegendNANA
19:00 Legend Double Dagger 9.1 1.1 57 31 23 24.1 99.21     Mainly Clear
20:00 Legend Double Dagger 8.4 1.3 61 30 15 24.1 99.29     LegendNANA
21:00 Legend Double Dagger 8.6 2.2 64 26 13 24.1 99.31     LegendNANA
22:00 Legend Double Dagger 7.0 1.9 70 25 9 24.1 99.30     Clear
23:00 Legend Double Dagger 6.8 2.1 72 23 14 24.1 99.25     LegendNANA

Notes on Data Quality.

Legend

  • E = Estimated
  • M = Missing
  • NA = Not Available
  • ‡ = Partner data that is not subject to review by the National Climate Archives
Date modified: